Theta_e
313 314 314 314 313 312 312 310 310 310 311 313 313 312 312 311 311 311 311 311 311 311 311 312 311 312 311 311 311 312 311 311 310 310 312 314 310 312 313 313 315 315 316 316 315 316 316 316 316 314 317 316 315 315 313 315 318 318 321 322 323 323 321 322 325 324 320 320 321 319 316 316 316 315 314 313 313 313 313 313 312 312 311 311 311 312 312 312
312 313 313 313 313 313 312 311 310 309 310 312 312 313 313 312 311 311 311 310 310 310 311 311 311 311 311 311 311 311 311 309 309 310 314 313 312 313 312 312 312 313 314 315 316 316 317 319 315 315 319 318 315 314 314 315 315 320 323 321 322 322 321 320 323 323 318 317 318 316 315 315 315 315 313 313 314 313 313 312 312 312 311 311 310 310 310 310
311 312 313 313 313 313 313 312 311 310 309 310 311 312 313 312 311 310 310 310 310 310 311 311 310 310 310 311 311 310 309 308 312 315 315 315 316 315 315 314 312 312 312 313 316 315 316 317 312 315 318 316 317 315 315 316 315 320 322 321 322 321 320 318 319 320 318 317 316 315 315 315 314 314 313 313 314 313 313 312 312 313 312 312 311 309 308 308
310 310 311 312 312 313 313 312 311 310 309 309 310 311 312 312 311 310 309 309 309 310 310 309 309 310 310 310 310 309 308 311 318 317 315 316 316 316 317 317 314 312 312 314 316 316 315 313 311 315 316 317 320 314 315 318 317 319 318 321 324 319 318 317 317 317 316 316 316 315 314 314 313 313 313 313 314 313 312 312 312 313 312 312 311 310 309 308
310 310 311 311 312 313 313 312 311 310 309 310 310 310 311 312 311 309 309 309 309 310 308 308 309 309 310 310 309 309 310 316 317 315 315 317 315 315 317 317 316 313 313 315 316 315 314 312 312 317 316 318 319 315 318 318 315 318 317 319 321 318 317 316 317 318 317 316 315 314 313 313 311 312 313 312 313 313 312 312 312 312 312 311 311 310 309 310
311 312 311 311 312 312 313 312 311 311 310 311 311 311 311 312 311 309 309 308 308 308 307 308 309 309 309 308 308 309 312 315 314 314 316 316 316 315 315 316 316 313 314 317 315 314 315 314 313 318 317 317 318 317 319 315 312 316 317 318 318 316 315 314 313 315 315 313 313 312 312 312 311 311 311 312 312 311 311 312 311 311 311 310 310 310 310 310
312 312 311 310 311 312 312 312 311 311 310 310 311 310 311 311 311 309 309 308 308 307 308 309 308 309 309 307 309 310 312 317 314 314 315 314 315 316 314 315 314 314 317 316 314 316 319 316 316 319 318 317 319 319 317 313 312 313 315 317 315 314 313 312 311 311 312 311 311 310 311 312 312 313 312 313 312 311 311 311 311 311 310 310 309 310 309 309
313 312 311 311 311 312 312 312 311 309 309 309 309 309 310 311 311 309 308 308 308 308 308 309 308 308 308 306 310 312 314 317 312 311 312 311 314 315 315 316 315 316 317 315 315 317 318 317 317 316 318 319 318 317 315 314 315 314 314 314 314 315 315 313 312 312 313 312 312 312 313 313 312 313 313 313 312 312 311 311 311 311 311 311 310 310 309 309
313 312 311 311 311 311 312 311 310 309 309 309 309 310 310 311 311 310 309 309 309 309 309 308 308 308 308 306 308 313 317 315 311 312 312 310 314 315 315 316 317 318 316 315 315 314 315 318 318 316 318 320 315 315 316 316 318 316 315 315 314 315 314 313 314 314 314 313 313 313 313 313 312 312 313 313 312 312 312 313 313 312 312 312 311 310 310 309
313 312 311 311 311 311 311 310 309 308 309 309 309 310 311 311 311 311 310 310 310 309 309 308 308 308 307 306 307 313 314 314 315 315 314 313 314 314 315 315 316 317 314 314 314 313 316 318 317 315 317 318 315 315 316 316 317 315 315 316 315 315 314 314 315 313 313 312 312 314 314 313 312 313 315 314 315 314 314 315 314 312 313 312 311 310 309 310
312 312 311 311 311 310 310 310 309 309 310 310 310 310 311 311 311 311 311 311 310 309 309 308 308 307 307 306 308 312 311 312 316 316 314 314 315 315 314 313 314 314 314 314 314 314 315 313 311 314 316 316 315 316 316 315 316 316 317 316 315 316 315 314 314 313 312 313 315 315 314 313 312 313 316 314 315 315 314 315 314 312 312 310 310 309 309 309
311 311 311 311 310 310 310 310 311 311 311 311 311 311 311 312 311 312 312 311 310 309 309 308 308 307 306 306 307 310 308 311 314 315 313 312 315 316 313 313 313 313 314 313 313 313 314 312 311 315 317 315 316 317 316 315 315 316 317 316 316 315 315 314 313 313 313 316 318 316 313 315 315 316 315 313 313 313 313 314 313 311 310 310 309 309 308 308
312 311 311 311 310 310 310 310 311 312 312 312 312 312 312 312 312 312 312 311 310 309 308 308 307 305 306 307 307 307 308 309 311 312 312 311 313 315 315 314 313 313 314 314 314 313 313 313 313 316 315 315 318 316 314 314 315 317 316 317 316 314 316 317 313 312 314 316 316 315 313 315 321 320 314 311 312 313 314 314 312 310 310 309 309 309 308 308
313 313 311 311 311 311 311 310 311 311 312 312 312 312 312 312 312 312 312 311 309 308 308 307 306 305 305 306 306 305 306 307 307 308 310 310 311 314 315 315 315 315 316 316 314 313 314 312 312 314 313 315 317 315 315 317 318 317 315 316 315 315 322 323 316 313 314 315 313 313 315 313 317 321 318 314 312 313 314 312 311 311 310 309 309 309 309 309
314 314 313 311 311 311 311 311 311 311 311 312 312 312 312 311 311 311 311 310 308 308 308 307 306 305 305 305 305 305 307 307 308 307 308 309 309 313 315 315 316 316 317 316 314 313 313 312 313 316 315 313 314 316 318 320 321 318 316 319 318 318 322 320 314 315 316 315 313 312 317 315 311 316 319 317 314 313 312 311 311 311 310 309 309 309 310 310
315 315 314 313 312 311 310 310 311 310 310 311 311 311 311 311 311 311 310 309 308 308 307 306 305 304 307 308 305 305 306 307 309 310 309 308 309 313 314 314 315 314 315 314 312 312 312 314 314 315 315 314 316 320 319 319 321 317 314 319 322 319 319 315 312 314 314 314 316 314 315 315 311 312 315 314 313 313 312 311 311 310 310 310 310 310 310 310
317 316 316 315 314 312 311 310 310 310 310 310 311 311 310 310 310 310 310 308 309 308 306 306 304 303 307 306 305 308 308 307 308 310 311 308 309 313 313 312 311 310 312 311 311 312 312 313 313 313 316 316 317 320 318 320 323 321 316 318 320 318 317 317 313 313 312 312 316 314 312 312 311 311 312 311 312 313 312 311 310 310 310 310 311 310 310 311
317 317 317 316 316 315 313 311 310 310 310 310 310 311 310 310 310 310 309 308 307 306 305 304 303 305 309 307 308 311 309 309 309 309 310 309 309 313 314 312 310 310 313 314 313 314 314 314 314 317 318 316 316 317 318 320 321 323 322 319 318 316 316 316 313 312 312 312 313 313 312 312 311 311 311 310 311 312 311 311 310 311 311 311 311 310 310 310
315 316 316 317 316 316 315 314 311 311 311 311 311 311 311 310 309 308 308 306 307 308 310 308 305 308 309 308 308 308 309 311 311 310 309 309 310 313 312 311 312 314 317 317 315 314 316 316 316 319 318 315 316 316 316 316 314 315 317 316 316 315 314 313 312 313 313 312 313 313 313 312 312 312 311 311 311 311 311 311 311 311 311 311 310 310 310 310
312 313 314 315 316 316 316 315 313 311 311 311 311 310 311 310 309 309 306 305 307 309 312 309 306 310 310 307 308 309 311 312 311 310 309 309 311 312 312 311 314 316 317 318 317 313 314 316 317 317 316 315 315 315 315 315 314 314 314 315 315 314 314 312 311 314 313 313 314 314 313 313 312 312 311 311 311 312 312 312 312 312 312 311 311 311 311 311
310 311 312 313 314 315 316 316 315 312 312 312 311 310 311 311 313 312 307 306 307 306 308 307 305 308 307 306 307 309 312 312 312 311 309 310 311 314 315 313 315 317 316 317 316 312 312 316 316 315 314 316 317 315 314 315 315 316 315 315 314 313 314 313 312 313 312 314 316 315 314 312 311 312 311 312 312 312 312 312 312 312 312 311 311 312 312 310
308 309 310 311 312 313 314 315 315 313 313 312 310 309 309 308 309 308 306 308 308 305 306 306 305 306 305 304 305 307 309 312 314 312 309 310 312 315 316 314 317 317 314 314 315 314 313 315 314 313 314 316 317 315 314 314 315 315 315 314 314 314 313 312 313 315 312 313 315 314 313 313 312 312 311 311 311 311 311 311 312 312 313 313 312 313 312 311
305 307 308 309 310 311 313 315 315 314 313 312 310 309 308 307 307 305 306 308 308 306 307 306 306 306 305 305 304 305 307 309 312 312 310 310 312 314 314 315 316 315 314 314 316 316 315 315 313 312 313 313 315 315 314 314 313 314 314 314 314 314 314 313 314 316 313 313 314 314 313 313 312 311 313 315 314 314 314 315 315 313 313 314 312 312 311 312
303 304 306 308 309 310 311 313 315 314 313 312 310 309 308 308 307 306 306 308 309 308 307 305 305 306 306 305 304 305 307 307 310 311 310 311 312 313 313 314 314 314 314 313 315 315 314 314 312 312 313 312 314 314 314 315 314 313 312 314 314 313 314 313 314 314 313 314 314 313 314 317 319 320 323 322 317 316 316 316 318 315 312 311 310 311 311 312
301 302 304 306 308 309 310 313 314 313 313 311 310 310 310 308 307 307 307 309 311 309 306 305 305 306 306 304 304 305 306 307 309 309 310 311 312 313 313 313 314 315 313 312 313 314 313 312 312 314 314 312 313 313 313 315 314 313 312 313 313 314 314 313 313 313 315 319 315 313 318 323 326 326 324 319 315 314 314 314 315 314 313 312 313 316 316 315
299 300 301 303 305 308 311 313 312 313 312 310 310 310 310 309 308 307 307 311 314 312 309 308 308 308 306 304 304 306 309 309 307 307 309 311 310 312 314 313 313 314 312 312 313 312 313 313 312 315 315 312 313 313 312 312 313 314 315 315 314 313 313 313 313 313 318 321 314 313 319 321 320 318 316 315 314 314 313 314 315 314 315 317 318 319 318 317
298 298 299 301 303 305 309 310 309 311 312 310 311 311 309 309 307 306 310 315 315 314 312 308 307 308 307 305 304 308 314 312 307 308 310 311 310 310 314 314 313 312 312 312 313 312 314 315 312 312 313 313 313 313 312 311 314 316 315 316 317 314 313 313 313 314 317 316 313 315 318 318 318 317 317 317 317 315 314 315 315 314 318 320 320 319 319 319
298 298 298 299 301 302 305 307 307 310 311 310 310 310 309 308 306 308 314 317 315 315 314 309 306 306 306 304 304 309 312 309 310 311 309 310 311 310 313 314 313 314 313 312 313 312 313 317 315 312 313 313 312 314 314 311 314 316 312 313 315 314 314 314 314 315 314 313 316 317 315 317 320 320 322 320 316 317 317 316 314 313 315 316 320 322 321 322
297 297 297 298 299 301 304 307 308 309 310 309 309 308 307 306 305 311 316 315 315 316 313 310 308 306 305 304 305 307 307 309 312 312 309 310 311 310 313 313 313 314 312 311 312 310 310 314 314 312 313 313 312 315 316 313 313 314 310 311 313 314 313 313 314 315 315 315 318 318 315 317 319 319 323 322 318 321 322 319 317 316 316 316 319 322 321 323
297 298 298 298 299 301 303 306 306 308 308 308 309 307 306 306 308 315 317 315 314 314 310 309 309 308 306 306 307 307 307 310 312 311 312 312 311 312 311 310 313 314 312 312 313 310 308 309 311 312 313 313 313 314 313 313 313 311 311 314 316 316 314 314 314 314 317 318 317 318 317 317 318 321 327 324 320 321 321 322 321 317 317 318 319 321 321 322
297 297 298 298 299 300 302 304 305 306 307 307 307 306 306 308 311 317 318 313 308 312 312 311 309 307 307 309 310 308 307 311 311 311 313 312 313 315 312 311 314 314 313 313 312 312 311 311 311 313 312 312 314 312 310 310 310 311 316 319 318 317 315 316 316 315 319 320 316 315 314 314 317 322 326 322 316 315 315 319 320 317 317 317 318 320 322 323
296 297 297 297 298 298 300 302 302 304 306 305 306 307 309 312 314 317 318 312 309 313 314 314 310 307 307 309 311 308 308 312 312 312 313 312 313 314 313 313 313 314 316 314 312 313 313 311 312 313 311 312 315 314 311 309 309 312 316 318 318 318 317 319 317 315 317 317 314 314 313 313 315 317 316 315 313 313 313 313 313 313 315 315 316 318 320 325
296 296 296 297 297 296 298 300 301 303 305 304 306 309 311 314 315 316 316 314 312 312 311 313 311 309 308 311 312 308 308 312 311 312 313 312 313 312 312 313 311 314 318 313 312 316 316 313 310 311 312 312 313 314 315 314 312 312 314 316 318 317 318 322 318 314 316 316 312 311 313 315 316 316 315 313 312 312 312 312 312 310 311 313 315 317 319 323
296 296 296 296 295 295 296 298 300 302 303 304 307 310 311 314 315 314 314 314 314 314 313 312 311 310 310 312 313 309 310 312 311 312 313 311 313 312 312 313 310 312 315 313 313 316 320 319 315 313 315 314 311 312 316 317 312 310 313 316 318 315 317 323 323 320 321 320 313 309 314 320 322 320 316 314 314 314 313 313 313 311 310 310 313 316 317 318
295 295 295 295 294 293 294 296 298 300 303 304 307 310 312 315 313 312 314 312 314 318 315 312 313 313 314 313 311 310 311 311 311 312 313 312 313 313 312 313 311 312 314 315 315 313 315 320 316 312 313 312 311 312 315 316 312 311 314 316 318 316 315 318 319 316 315 317 315 313 316 319 320 318 313 311 313 313 312 312 312 314 314 311 312 314 314 314
295 295 295 294 292 291 292 294 296 299 302 305 308 311 312 314 312 311 314 312 312 317 315 313 314 316 317 315 312 310 309 310 311 312 313 312 313 312 312 312 311 311 312 313 316 315 315 318 313 309 310 311 312 313 312 314 315 313 314 316 315 314 314 316 316 313 311 315 317 316 317 316 315 316 315 315 315 313 314 315 313 313 315 314 313 311 310 311
295 295 294 294 292 291 291 293 296 299 302 305 308 311 311 311 311 312 314 311 311 315 316 314 313 315 317 315 314 313 311 311 311 311 312 312 313 313 312 312 311 311 311 311 315 317 316 317 312 309 312 311 309 311 311 311 314 314 316 316 312 312 315 317 317 316 315 317 317 316 317 315 315 318 319 319 317 316 317 317 313 311 310 312 311 309 309 311
295 295 294 293 292 293 292 293 297 299 302 304 307 310 310 309 309 310 312 310 310 313 314 314 313 315 317 316 316 316 312 312 312 310 312 313 314 314 312 313 312 311 311 311 314 315 315 316 313 310 313 310 307 311 313 310 310 314 316 314 313 317 318 316 316 319 319 318 319 320 318 316 316 317 317 316 316 317 316 314 313 312 312 313 312 309 309 311
295 295 294 293 293 294 293 294 298 300 302 304 305 308 309 308 307 307 308 309 310 311 313 315 313 313 315 315 315 315 312 313 313 311 313 315 315 315 314 313 313 311 311 311 313 314 313 316 316 310 308 309 309 312 316 313 310 311 311 310 312 316 317 316 316 318 319 319 320 320 319 317 316 318 319 317 318 319 317 316 316 315 315 315 313 309 309 310
295 294 294 293 293 294 294 295 298 299 301 304 304 306 307 307 308 309 309 309 309 310 311 313 312 312 313 313 313 314 312 312 313 312 313 315 316 316 314 313 314 312 310 310 312 312 312 315 316 311 307 309 312 313 314 314 312 311 312 312 312 312 314 316 315 314 318 321 320 319 318 316 314 318 320 318 319 320 319 319 318 317 314 311 310 308 308 309
295 293 293 293 293 295 296 296 297 299 301 303 303 305 306 306 309 310 310 310 309 309 309 310 310 311 311 311 312 313 312 312 312 312 313 314 315 315 314 312 315 314 310 311 312 312 313 315 315 315 312 311 314 314 312 313 314 313 313 313 313 312 313 315 315 314 315 317 319 318 318 315 313 317 317 316 321 322 319 317 317 317 315 311 308 307 307 308
295 294 293 294 295 295 296 295 296 298 300 301 302 303 303 305 307 307 308 309 308 308 308 309 309 309 309 310 310 312 313 313 312 312 312 313 313 313 313 312 314 314 313 313 312 311 313 314 314 315 315 313 314 313 311 311 312 312 313 313 312 312 313 315 316 316 314 314 316 316 316 315 313 316 317 318 321 321 319 316 315 317 314 309 307 307 307 307
295 294 294 294 296 296 295 294 295 296 298 299 300 301 301 303 305 305 306 307 308 309 309 308 309 309 309 310 310 311 313 313 313 312 312 312 312 312 314 314 313 312 313 313 313 312 312 312 313 314 314 315 313 310 308 308 310 313 313 312 312 312 313 314 316 316 316 316 315 315 316 315 313 316 319 319 321 322 319 317 316 316 312 308 307 308 308 308
295 294 293 294 295 296 295 294 294 295 295 296 296 298 299 300 301 302 303 304 306 309 309 308 309 308 308 308 308 309 311 312 312 312 311 312 313 313 314 315 314 313 313 314 315 314 313 313 314 314 315 317 315 311 310 309 309 312 313 312 312 312 312 314 314 314 315 315 316 316 316 315 312 315 315 315 317 317 317 316 313 312 312 311 308 308 309 309
294 293 293 293 294 295 295 295 295 295 295 295 295 295 296 297 298 300 301 302 304 306 306 307 307 306 305 306 305 306 308 309 310 311 312 312 313 314 312 310 310 311 311 313 312 311 312 314 314 315 315 317 316 314 315 313 310 311 313 312 312 312 312 312 314 314 314 315 315 315 315 314 312 313 312 311 312 311 312 314 312 310 312 313 312 311 310 308
294 293 293 292 292 294 294 294 295 295 295 295 295 294 295 295 296 297 298 299 300 302 302 303 304 304 304 305 305 305 306 307 308 309 311 311 311 313 311 307 307 308 310 311 307 306 310 312 313 314 315 315 314 313 314 316 313 311 313 313 312 312 312 311 313 314 314 315 315 314 314 314 313 313 312 311 311 311 312 314 313 311 312 314 315 314 310 309
294 295 294 293 292 293 293 293 293 293 294 296 296 296 296 295 295 295 296 297 298 299 300 301 302 303 304 304 305 305 306 306 307 307 307 308 307 308 308 307 307 309 312 311 308 307 310 311 311 313 313 313 314 313 313 315 314 312 312 313 312 312 312 312 313 314 314 315 316 315 314 314 313 312 312 311 311 311 311 311 312 311 311 315 318 317 314 311
294 295 295 295 294 294 293 293 292 292 293 294 296 296 296 297 297 297 297 297 298 299 299 299 300 301 301 301 302 303 303 303 304 304 304 304 304 304 305 306 307 309 310 309 308 309 310 311 311 312 312 312 312 312 312 312 312 312 312 312 312 312 312 312 312 313 313 315 316 315 314 315 314 312 312 312 311 311 311 310 311 310 311 315 319 320 320 317
293 292 293 293 293 294 294 293 292 291 291 292 294 295 296 296 296 297 297 297 296 298 298 298 299 298 297 297 298 299 300 301 301 301 301 301 301 300 301 303 305 307 306 305 306 308 308 309 310 311 311 311 311 311 312 311 311 312 312 311 312 312 311 311 312 312 313 314 314 314 314 314 313 312 312 311 311 311 312 312 312 310 310 314 317 318 318 317
293 292 293 293 292 293 294 293 292 291 290 291 292 293 294 295 295 295 296 295 295 297 298 298 297 296 295 294 295 296 296 297 297 297 298 298 299 299 300 301 302 303 301 301 304 306 307 308 308 309 309 309 309 310 311 311 312 311 311 312 311 311 311 311 311 312 312 313 313 313 314 313 312 312 311 311 311 312 311 312 312 311 310 311 312 313 313 312
292 291 292 294 293 292 292 293 293 292 291 291 291 291 292 293 294 294 295 295 296 295 296 296 296 294 294 294 293 293 295 295 296 296 296 297 297 298 299 299 300 300 299 299 301 303 304 305 306 306 306 306 307 307 308 309 310 310 311 311 311 311 312 311 311 311 312 312 313 313 313 313 311 311 311 311 311 311 310 311 311 310 310 310 311 311 310 309
290 289 289 290 291 292 292 292 293 293 292 292 292 292 292 292 293 294 294 295 295 295 295 295 294 293 293 293 292 294 295 296 295 295 295 295 295 296 296 297 298 298 298 299 300 300 301 302 302 303 303 303 304 304 304 305 306 307 309 311 310 311 311 311 311 311 311 311 312 312 312 312 310 311 311 311 310 311 310 310 310 310 310 311 311 310 309 308
Wind_Speed
8 8 8 7 8 7 6 7 7 9 9 7 7 6 6 8 9 8 8 10 12 12 12 13 12 14 15 16 17 18 20 22 21 18 11 16 19 14 13 11 7 6 6 6 8 7 2 2 1 1 1 2 2 1 1 0 2 2 2 2 3 4 4 5 7 6 3 5 5 3 2 3 12 10 4 6 6 9 12 12 12 10 11 15 22 27 26 25
9 8 9 9 9 8 8 8 7 9 10 8 8 7 6 6 8 8 9 11 12 12 12 12 12 14 15 16 17 18 21 22 19 17 16 17 18 18 18 16 15 13 9 7 8 8 3 1 1 4 4 1 1 1 1 1 2 2 3 2 5 5 5 5 6 5 4 7 8 6 6 5 10 10 3 7 14 12 14 16 12 11 13 15 20 23 25 24
9 8 9 11 11 10 8 7 7 9 10 10 10 9 7 6 7 9 9 11 12 12 12 13 14 14 15 17 17 19 21 17 11 9 9 9 10 14 14 15 18 17 13 10 8 8 5 2 5 5 4 1 1 1 1 1 2 2 3 3 7 6 6 5 6 7 7 8 11 11 8 7 10 6 2 7 14 14 15 17 13 14 15 13 12 13 17 18
10 10 11 12 12 10 8 8 8 8 9 11 11 10 9 7 6 6 9 11 12 11 12 14 14 14 15 16 17 19 15 9 4 3 5 6 4 5 7 10 15 17 13 10 5 6 6 5 6 4 3 1 3 2 0 3 2 1 3 5 6 4 6 7 7 9 9 7 9 10 9 12 10 3 4 6 9 13 15 15 12 14 17 14 13 9 8 10
11 12 12 12 11 10 8 8 9 9 9 11 11 11 10 8 5 5 10 12 10 9 12 14 14 14 15 16 17 15 7 3 2 2 5 7 8 4 2 7 13 16 13 10 7 8 7 6 6 4 3 1 2 2 2 4 2 1 5 8 7 4 7 8 5 7 7 5 8 9 10 13 8 3 6 6 8 13 16 16 12 12 14 14 14 13 9 9
11 11 11 11 10 10 9 8 9 9 10 11 10 11 10 9 5 6 11 11 8 9 12 14 13 14 15 17 15 8 1 1 2 1 2 6 8 6 3 5 14 15 13 11 9 10 7 5 4 2 2 0 2 3 4 3 2 3 5 6 7 6 9 9 5 6 5 5 11 9 7 9 12 12 8 10 17 19 20 20 15 13 14 13 13 13 14 14
11 10 10 10 9 9 8 8 9 9 9 10 10 10 10 9 6 7 10 11 9 9 11 12 14 14 14 16 10 3 2 5 7 4 4 5 5 2 3 6 14 14 13 12 10 7 5 5 3 3 3 1 3 5 4 2 1 4 6 5 7 7 9 11 8 8 6 9 14 10 7 11 17 15 6 13 22 21 21 18 14 15 15 13 12 13 15 16
12 10 9 9 9 9 10 10 9 8 9 10 10 10 10 9 7 9 11 11 10 8 10 12 14 13 14 14 5 2 1 8 11 11 12 8 3 2 3 8 12 13 13 12 10 7 5 5 5 3 2 3 3 4 3 2 2 6 7 5 5 6 8 12 11 12 10 11 12 9 11 15 17 12 9 21 27 21 16 13 13 14 13 12 12 15 14 14
11 11 10 9 9 9 10 10 8 8 9 10 10 8 8 8 7 9 9 10 8 7 9 11 13 13 13 9 3 2 4 5 6 8 10 7 5 5 6 9 12 13 12 10 9 9 6 5 5 4 4 4 4 3 1 0 4 5 5 5 5 8 10 12 15 16 13 9 8 10 16 17 13 8 13 24 27 21 11 8 12 10 10 11 11 13 12 13
10 11 11 11 10 9 10 10 8 9 11 11 10 8 8 8 9 9 8 8 7 7 9 10 12 11 11 7 2 2 5 2 1 1 3 6 7 7 10 10 13 14 12 8 8 9 5 6 6 4 4 2 3 3 2 3 3 3 5 8 9 11 12 9 15 19 12 10 10 12 17 17 8 2 10 19 14 8 5 7 9 6 9 11 10 12 11 11
10 11 11 11 10 10 11 11 10 11 12 11 10 9 9 9 10 10 10 9 6 6 8 9 12 11 9 4 1 4 4 3 3 4 4 4 6 9 11 11 13 14 12 7 8 9 6 7 7 4 2 2 2 2 3 4 2 5 6 12 13 10 11 11 15 16 7 7 8 8 16 14 5 6 15 21 8 2 5 9 9 8 9 10 11 12 10 10
10 11 11 10 10 11 11 11 11 12 12 11 10 10 9 10 10 11 11 8 6 6 7 9 10 10 8 3 8 12 7 4 6 4 2 2 4 9 10 10 11 13 11 6 6 9 7 8 9 4 3 2 1 2 3 3 2 4 3 11 16 8 9 12 10 6 3 4 5 2 13 9 9 12 20 18 10 6 7 10 10 9 9 10 11 11 10 10
11 11 12 11 11 11 11 11 11 12 12 11 11 10 10 11 11 11 9 7 5 6 8 9 10 10 8 4 11 17 13 9 11 12 11 7 5 8 9 9 10 9 8 5 4 5 7 10 9 4 3 3 2 3 0 1 2 5 1 3 12 8 7 9 1 1 2 4 4 2 9 8 9 16 18 10 7 7 6 8 9 11 11 10 11 10 11 10
12 12 12 12 13 12 11 11 11 12 11 11 12 11 11 10 10 10 8 7 6 6 7 9 11 10 4 6 13 15 14 15 19 21 18 12 8 8 8 9 8 8 6 4 4 3 6 10 8 3 1 2 2 3 4 4 2 5 3 2 4 5 6 7 1 0 3 3 3 4 4 13 10 11 13 10 4 3 7 11 13 14 13 11 11 11 12 11
14 13 12 12 13 13 12 11 11 11 11 11 11 11 12 10 9 8 7 7 7 6 7 8 10 6 3 10 13 10 9 10 14 18 18 15 10 6 7 8 7 7 6 5 5 5 7 9 6 3 1 1 2 3 4 4 3 2 3 3 2 2 5 8 5 2 2 3 5 4 3 13 17 9 8 5 2 3 11 15 15 15 14 13 12 10 10 11
17 16 15 14 14 13 12 11 11 11 10 10 11 11 11 10 9 8 8 7 7 7 6 6 6 2 3 7 5 4 6 6 6 8 9 14 13 7 8 9 7 7 7 7 7 8 7 6 3 2 1 1 3 4 3 4 4 2 1 4 4 3 5 7 5 0 1 2 5 1 3 9 18 13 6 3 5 11 14 16 16 15 15 13 12 10 9 10
20 19 18 17 16 15 13 11 11 11 10 9 10 10 10 9 8 8 9 8 9 8 4 3 4 3 5 5 4 5 5 4 5 4 3 11 13 11 12 9 5 8 9 7 7 6 3 3 1 0 1 1 3 4 3 3 5 3 0 3 4 4 5 6 6 3 3 3 4 6 6 11 21 24 19 12 8 11 13 15 16 15 14 12 11 10 9 8
17 19 20 20 19 17 16 13 11 11 10 9 9 9 8 8 8 10 10 8 6 5 3 4 3 3 4 4 4 5 3 2 2 2 2 11 13 14 13 7 5 9 8 4 2 2 1 2 2 1 2 1 3 5 3 6 5 3 2 3 5 4 5 8 8 3 4 4 6 10 12 16 23 25 23 17 8 11 16 16 14 14 14 13 11 10 9 8
8 12 16 19 20 20 20 17 13 11 9 8 8 7 6 6 8 10 8 4 2 2 3 3 4 2 3 3 4 4 2 1 1 1 6 12 12 12 10 7 7 7 5 2 1 2 2 2 3 0 4 5 7 8 11 9 2 2 4 3 5 6 6 12 12 4 3 7 8 12 15 15 21 23 21 20 13 13 19 15 12 13 12 11 10 9 8 8
6 6 8 12 17 20 22 21 17 13 11 10 7 4 3 3 4 4 3 4 7 8 4 4 8 5 6 3 2 3 2 2 2 2 9 14 14 11 6 3 6 4 3 5 2 1 3 2 3 7 9 7 9 12 13 7 3 2 4 5 6 6 9 14 13 4 1 5 8 11 14 14 19 23 22 20 16 17 19 15 13 12 10 9 9 10 9 9
7 7 7 8 10 14 19 22 21 15 13 12 8 3 1 2 1 1 2 5 12 15 12 11 12 10 11 6 1 2 0 1 1 4 12 14 14 11 2 2 5 2 3 4 2 2 2 6 9 13 10 4 8 11 9 7 6 6 6 7 7 5 11 14 11 7 0 3 5 7 14 16 19 24 22 18 17 19 17 12 13 13 10 9 8 10 10 8
7 7 7 8 9 11 13 18 22 20 15 14 11 5 2 3 3 2 2 5 10 15 16 16 14 13 18 16 6 1 3 3 3 3 12 13 9 7 4 5 6 4 4 4 2 1 2 7 12 13 6 4 4 6 7 8 8 8 5 5 6 5 9 11 8 4 2 1 5 7 14 17 20 25 23 17 14 14 13 10 12 11 9 9 8 9 8 8
9 8 8 8 8 10 11 13 19 20 19 17 13 8 3 4 4 3 1 4 8 9 12 13 13 12 15 16 11 7 4 7 6 5 14 14 6 5 6 7 7 4 5 7 7 5 4 7 12 12 5 4 3 3 6 6 6 7 5 3 7 5 4 6 4 3 3 4 7 10 13 13 15 18 16 12 8 7 8 9 9 8 9 10 9 7 7 8
11 10 10 10 11 11 11 12 15 17 22 19 16 13 7 5 3 3 2 3 6 5 8 10 9 8 9 7 9 14 8 7 5 5 15 16 6 3 5 6 6 4 6 11 11 10 7 4 5 6 7 7 6 4 6 5 5 6 6 6 9 8 7 8 5 7 8 5 4 9 11 9 8 9 9 6 5 7 7 7 8 8 8 8 7 7 7 7
12 12 11 11 11 13 13 10 9 16 21 16 15 17 13 9 4 3 2 3 5 4 4 5 4 5 7 4 10 12 4 4 6 4 13 16 8 4 3 3 4 6 8 9 9 10 9 3 3 5 5 7 7 7 7 8 5 3 6 12 14 11 9 10 7 7 6 4 3 7 7 7 3 4 9 6 7 13 11 10 11 8 7 6 6 7 6 6
11 11 11 11 11 14 10 5 4 14 17 10 13 16 15 13 8 4 1 3 6 3 0 2 2 5 7 6 7 7 4 3 6 6 13 15 9 4 3 2 1 4 6 5 4 5 5 5 5 6 5 6 6 8 8 9 4 4 5 12 14 12 8 9 7 3 1 4 3 4 2 8 5 4 12 10 9 14 12 11 12 9 6 6 5 6 5 5
11 11 11 10 11 11 5 4 5 9 10 5 13 14 12 11 8 4 1 3 6 2 5 1 1 6 6 6 7 6 3 2 1 4 10 13 8 2 2 5 2 2 4 3 2 3 4 5 6 7 5 6 6 7 7 11 5 4 4 7 10 9 8 7 4 3 4 3 4 3 4 7 8 5 11 11 9 11 10 11 11 8 6 6 6 6 5 6
12 12 11 9 10 9 4 5 5 5 3 3 9 12 9 9 7 2 2 3 5 3 5 1 2 5 3 4 6 3 1 1 3 0 2 8 7 2 2 6 5 5 4 5 5 3 3 5 7 8 6 5 6 4 8 12 6 5 2 5 6 6 5 5 3 3 3 4 4 4 6 3 9 6 6 7 7 8 9 10 10 9 7 6 6 6 6 6
12 12 11 10 10 7 3 2 3 5 6 2 7 11 11 9 5 3 1 4 3 3 3 2 3 2 4 3 2 2 2 2 1 1 2 5 4 3 3 5 5 6 4 5 7 2 2 5 7 8 6 7 5 4 9 13 7 4 4 4 3 3 2 2 3 1 1 3 5 6 6 3 7 5 3 3 4 6 7 7 8 7 7 6 6 6 6 5
11 11 12 11 8 6 3 0 3 6 6 5 9 12 13 6 1 2 5 6 1 2 2 3 2 2 5 5 2 2 1 2 1 1 2 2 1 4 1 2 5 4 2 4 7 4 2 2 3 5 5 5 4 3 5 10 7 3 5 2 4 3 3 3 1 2 1 5 6 7 10 7 4 5 4 4 4 4 4 6 7 6 6 6 6 6 6 5
10 11 12 11 9 8 5 2 4 3 8 12 16 15 9 1 1 4 8 3 2 1 2 1 0 3 6 5 2 2 2 1 1 3 3 2 2 3 1 2 3 3 1 5 6 6 6 5 3 3 3 4 4 2 1 3 4 4 4 2 2 2 3 4 3 2 1 6 4 3 7 9 7 7 4 5 7 5 4 5 6 6 6 7 6 6 6 5
10 10 10 10 9 7 4 2 6 1 14 19 18 11 4 1 3 7 6 2 2 2 2 1 1 3 2 1 0 3 2 1 2 4 4 4 5 5 5 4 4 2 2 5 3 3 6 10 9 4 2 5 5 2 1 1 2 3 3 3 2 2 3 3 2 0 3 6 2 1 2 4 8 8 9 15 16 11 8 8 8 8 7 7 7 7 6 5
9 10 10 11 11 9 5 4 6 2 17 19 10 5 2 4 7 9 6 2 3 1 2 2 3 3 2 2 2 1 1 1 3 3 2 4 5 7 6 6 5 3 2 4 2 2 3 5 6 5 3 5 9 6 3 2 5 6 5 4 4 2 1 2 3 1 3 6 3 1 0 3 6 6 10 17 18 14 10 9 9 9 9 8 7 7 6 6
9 10 11 13 12 11 8 7 6 3 17 12 3 4 4 8 11 9 7 7 4 2 3 2 4 3 2 1 3 3 1 2 5 4 2 4 4 5 7 9 7 3 2 2 1 3 2 5 5 9 3 7 13 11 6 5 6 7 5 4 4 4 4 4 4 3 4 4 3 1 2 3 3 3 6 10 11 10 9 8 7 7 8 7 7 7 6 7
9 11 13 15 13 11 8 8 7 5 12 7 2 5 7 9 10 9 7 6 3 2 3 2 4 3 2 3 3 3 3 2 4 4 3 5 5 5 6 8 9 6 3 3 2 3 4 7 6 6 2 9 13 8 6 8 3 4 3 3 2 4 5 2 3 5 2 3 4 2 4 4 4 7 11 10 11 11 9 8 7 8 9 7 7 8 7 7
11 12 13 13 13 11 7 7 7 7 8 4 4 6 8 10 9 6 3 3 3 3 2 2 2 3 4 3 2 4 2 1 4 4 2 5 5 5 5 5 9 12 9 6 2 3 3 5 4 3 1 7 9 6 8 6 4 3 3 4 3 3 6 2 3 1 3 2 4 2 4 6 4 9 10 6 7 8 9 9 10 11 8 7 8 8 7 7
10 10 10 14 15 12 8 6 6 8 7 4 6 8 8 11 9 4 2 1 2 5 5 4 4 5 5 3 2 4 2 1 4 4 2 4 4 6 8 4 6 14 16 9 2 2 4 4 4 4 2 4 2 3 4 3 4 6 4 5 2 2 2 2 1 3 2 4 4 1 4 5 5 6 5 5 8 8 9 7 6 7 5 6 9 7 7 8
6 6 9 13 11 6 6 9 9 9 4 2 8 11 10 10 8 5 2 0 1 2 3 5 5 5 5 4 3 4 5 3 5 5 2 2 4 6 8 5 6 15 19 10 3 3 2 2 4 3 2 1 2 3 2 2 2 5 3 3 3 2 2 2 2 2 2 4 4 3 4 4 6 7 5 5 7 9 10 6 3 6 6 7 8 8 9 10
2 3 5 5 3 4 7 14 11 6 3 5 10 10 9 12 12 6 3 2 1 1 2 4 4 3 4 5 3 2 5 6 6 5 3 3 4 5 9 6 6 11 15 11 6 4 1 1 4 0 1 0 2 2 4 3 2 0 0 1 1 2 3 3 3 2 3 4 4 5 6 6 8 6 5 7 8 9 10 7 4 8 8 7 8 8 9 10
4 2 3 4 2 3 9 14 8 5 5 6 9 9 8 9 9 5 3 4 4 3 4 5 3 2 3 4 3 2 4 6 5 5 4 4 5 4 6 6 3 3 7 9 7 4 1 3 5 1 2 1 2 5 8 9 7 4 3 3 3 2 1 1 2 2 4 3 3 5 8 9 7 5 7 9 8 8 8 7 7 7 7 8 8 8 9 9
4 1 3 5 1 6 13 10 4 5 5 6 9 11 9 4 5 5 4 3 3 4 5 6 6 5 4 5 3 2 3 4 5 6 4 4 6 4 4 7 6 5 5 4 6 6 2 4 5 2 1 4 7 6 8 12 12 10 8 9 9 7 3 3 5 4 4 4 5 5 8 13 7 4 6 8 7 7 7 6 7 8 8 8 7 8 8 7
2 3 3 3 6 14 12 3 4 4 4 7 7 8 6 4 5 7 5 2 2 3 3 5 7 8 6 7 7 3 3 3 5 5 4 6 8 7 4 6 8 7 6 4 5 6 4 1 4 6 6 7 8 5 3 6 7 5 5 6 7 8 8 8 9 5 2 2 3 3 7 14 9 5 6 6 6 6 6 6 6 9 9 7 6 7 7 7
3 3 3 6 14 17 8 0 5 4 5 7 8 8 7 4 3 4 4 4 3 2 2 3 6 8 8 8 9 6 4 5 7 7 6 7 8 9 6 8 9 6 3 2 3 3 3 1 4 8 6 4 4 3 2 2 2 4 4 4 6 9 12 10 6 3 2 4 5 4 8 13 11 4 6 6 7 6 6 6 7 8 8 6 6 7 7 7
2 3 2 6 15 15 5 2 6 5 6 8 10 12 10 7 5 6 5 5 3 2 2 3 2 3 3 3 4 4 5 7 9 10 9 6 6 8 6 9 10 8 6 5 3 4 4 4 5 7 6 4 4 3 2 2 3 4 5 7 9 11 11 5 1 0 4 7 9 9 8 10 12 5 3 4 7 8 8 6 6 7 7 7 5 5 6 7
1 1 2 4 10 10 4 3 4 4 6 8 10 12 11 9 7 8 8 7 5 3 3 3 1 2 4 4 5 4 6 7 7 6 5 3 4 6 2 3 5 6 5 4 3 1 5 5 7 8 8 8 8 9 6 4 4 3 3 8 11 12 12 7 3 5 8 10 12 12 9 9 14 13 8 5 5 7 8 6 5 6 7 6 5 5 6 6
1 2 3 2 3 6 4 3 4 3 5 7 7 8 10 11 9 8 8 8 7 6 7 6 4 5 5 6 8 7 7 8 7 5 4 3 3 3 2 4 2 4 10 12 7 3 2 4 8 13 14 13 13 13 6 5 5 6 9 13 15 14 15 11 7 9 10 11 13 12 11 14 17 19 19 13 8 8 9 7 5 5 7 6 6 5 4 3
3 3 5 3 1 3 3 3 5 4 4 5 4 5 10 12 9 7 7 7 7 7 6 6 5 6 6 7 8 8 6 7 7 7 7 6 4 4 6 7 4 6 11 9 1 2 2 5 9 15 18 16 14 15 10 2 6 10 13 16 18 16 17 15 13 16 14 12 13 13 16 19 17 17 22 20 16 14 11 8 7 8 9 6 3 2 2 2
4 3 4 6 5 5 5 6 8 8 8 7 4 5 10 11 7 6 5 3 3 4 2 3 6 7 6 6 6 7 7 9 9 7 7 7 5 6 7 7 6 5 5 4 1 0 3 6 8 13 17 17 14 15 16 13 11 11 12 15 17 17 19 19 20 22 19 16 15 14 18 21 16 16 21 23 25 21 12 9 9 9 9 5 3 4 5 6
2 1 4 3 4 6 7 10 12 12 13 11 6 7 10 12 11 8 3 2 3 3 2 5 5 3 4 5 3 4 5 7 7 5 6 7 6 6 5 6 5 4 6 5 4 2 3 4 7 13 16 17 16 15 17 18 17 17 16 15 14 16 20 21 22 24 24 24 21 17 20 21 16 16 21 24 25 17 5 6 9 9 9 7 7 9 9 9
3 2 3 0 1 2 3 7 10 10 10 11 8 9 11 12 14 11 5 4 5 3 3 7 4 3 3 4 3 3 5 6 7 6 8 9 7 5 4 5 5 5 6 5 4 3 4 4 6 11 12 14 15 16 17 18 18 20 21 18 16 17 19 21 21 21 21 23 22 21 22 19 15 17 21 22 19 10 2 6 9 9 10 10 10 11 10 10
8 3 3 3 2 5 4 4 7 7 7 8 8 10 12 13 14 11 8 8 7 5 5 6 3 2 1 3 4 5 5 5 7 8 8 8 7 6 5 5 7 8 8 6 5 5 5 4 6 9 9 10 12 13 14 15 17 19 20 20 22 21 19 18 18 17 18 20 20 21 20 15 14 18 19 18 17 15 14 12 9 8 9 10 11 12 11 10
8 1 2 3 3 6 5 4 7 7 6 8 10 11 11 12 12 10 8 6 5 6 6 3 1 1 3 6 9 7 2 2 6 7 6 6 7 7 7 8 9 7 6 6 6 5 5 6 6 7 9 10 13 16 15 14 13 13 12 16 24 26 24 22 20 20 20 19 17 17 15 14 14 15 16 18 18 19 20 17 11 8 9 10 11 12 12 10
Wind_Direction
280 272 269 260 254 254 272 283 283 286 290 285 277 287 298 296 298 310 321 326 331 331 331 328 330 332 331 332 332 328 321 316 314 311 287 266 273 268 258 260 243 218 204 209 225 229 274 340 25 73 50 29 4 345 354 53 108 89 101 172 237 203 208 198 195 210 213 273 272 277 322 308 300 294 303 318 272 262 276 267 255 253 250 248 256 263 266 269
284 281 278 272 263 259 265 270 283 290 291 297 289 282 290 291 292 302 315 322 327 329 329 328 330 329 330 333 332 327 320 318 313 294 277 277 281 273 260 250 242 238 225 213 220 201 170 304 143 87 60 51 314 340 349 308 146 146 134 199 239 208 215 196 199 234 240 279 288 286 290 279 282 293 343 311 291 293 291 282 274 266 259 254 255 258 263 264
282 282 280 278 269 258 257 262 276 290 293 301 302 293 289 287 291 297 309 321 325 325 327 330 330 328 330 332 332 326 319 320 312 280 291 304 280 266 256 241 233 231 227 222 221 203 185 167 142 105 61 360 291 7 16 292 197 186 151 227 245 228 248 230 219 243 245 279 296 293 295 282 271 281 314 288 292 295 284 280 283 279 274 269 263 249 253 259
278 280 279 280 275 259 255 259 260 278 292 294 298 297 290 288 293 296 308 319 323 325 330 333 331 329 328 329 330 325 320 324 293 258 356 358 322 273 241 224 217 216 217 210 198 190 178 128 108 85 76 283 312 24 214 229 209 180 173 225 242 231 268 247 224 246 256 271 281 288 304 292 276 225 241 273 293 289 276 268 255 261 275 282 285 273 245 246
271 279 281 278 271 254 251 255 252 265 284 286 286 288 288 286 283 304 317 320 320 324 335 339 335 333 329 328 331 326 327 355 284 283 11 24 21 7 222 196 194 201 200 189 163 148 155 117 87 63 70 257 318 39 243 223 157 183 218 238 252 244 271 265 232 244 256 272 278 285 293 290 291 235 240 248 259 267 269 269 254 245 264 278 287 292 280 261
263 274 281 274 263 251 248 254 260 267 279 283 282 283 286 279 272 306 322 329 324 322 339 345 341 338 332 329 331 332 353 293 287 294 21 34 26 31 64 163 174 185 187 172 151 140 134 89 84 105 86 318 212 197 249 242 138 240 249 254 262 249 263 278 281 267 271 284 276 274 283 297 297 284 263 244 247 252 259 268 271 268 266 270 277 282 281 274
257 267 276 273 261 252 248 253 264 272 281 287 283 278 277 270 270 298 319 334 329 327 341 346 344 343 338 337 338 15 81 263 266 238 259 335 358 38 87 155 163 176 180 159 142 137 115 98 137 161 117 305 222 209 246 290 170 236 259 269 274 266 265 278 284 275 271 264 266 271 289 285 278 284 297 264 257 252 258 268 273 273 272 270 271 267 266 267
254 259 268 270 259 250 250 255 265 278 288 294 289 279 272 263 267 292 310 319 319 333 341 345 349 347 340 344 3 29 268 251 263 255 258 281 282 193 169 162 162 174 174 165 158 144 124 135 178 163 150 245 200 201 248 325 251 228 252 263 276 284 274 284 287 278 270 259 263 267 265 261 261 279 293 271 269 265 259 266 267 266 272 269 264 262 261 262
252 253 257 262 257 251 250 255 266 275 279 286 287 281 271 260 265 282 296 300 306 329 335 345 349 345 342 348 46 332 265 233 264 261 253 244 217 209 201 177 171 175 168 175 172 151 150 176 202 193 192 215 181 214 247 183 243 224 253 275 280 284 278 286 286 279 276 267 265 265 263 262 260 279 278 262 262 270 266 250 255 256 266 264 257 259 257 259
251 251 253 258 255 249 244 244 254 261 266 276 282 278 265 257 263 269 277 287 300 319 328 346 343 345 356 3 65 278 254 177 105 195 195 195 200 201 199 189 180 178 166 170 169 156 171 192 193 177 170 174 175 217 188 171 243 266 287 288 278 278 277 273 274 277 284 282 266 257 266 265 248 182 269 262 248 261 289 263 260 253 254 259 260 262 258 258
255 254 256 259 253 246 242 242 250 255 260 271 278 276 264 258 263 268 271 279 296 314 325 339 336 339 347 360 120 232 225 181 170 121 105 161 197 198 197 195 188 182 167 160 182 188 203 191 157 124 165 192 174 235 234 201 290 313 311 301 285 279 279 261 262 274 284 281 255 234 266 262 183 169 243 260 265 18 320 288 283 275 265 268 267 267 265 261
261 259 258 258 253 249 246 250 259 262 262 264 270 272 268 265 266 270 268 274 297 312 323 329 333 335 326 291 227 237 231 213 224 213 304 307 213 202 195 191 192 191 181 170 199 209 215 184 147 138 222 173 119 286 247 218 320 305 331 309 294 296 284 269 263 267 163 243 267 254 284 267 162 212 241 253 280 320 307 287 288 283 276 277 273 274 269 261
261 263 263 260 258 255 253 259 265 267 263 258 265 270 272 273 272 274 269 271 291 306 318 321 326 326 317 267 240 252 259 258 259 260 265 269 239 219 205 195 194 197 200 200 207 205 207 191 163 174 209 133 236 271 290 31 343 297 308 285 300 320 293 282 285 76 129 250 294 20 303 288 189 218 245 260 289 308 305 284 289 289 284 282 279 281 277 269
259 261 263 262 262 260 258 260 263 267 264 261 265 267 273 280 279 276 268 268 281 300 310 315 322 320 294 256 265 278 283 271 266 259 254 254 243 224 212 207 200 199 207 202 190 178 192 192 163 134 173 142 243 296 337 353 5 305 293 200 309 319 283 297 298 343 321 297 12 69 286 285 263 227 247 264 241 257 298 291 293 293 289 288 284 281 281 278
257 259 260 261 263 263 261 258 259 264 265 265 266 269 275 279 277 272 268 277 283 289 297 309 323 328 287 278 278 288 287 271 265 259 253 245 229 205 202 199 192 193 193 183 174 158 158 164 142 112 252 272 43 12 332 329 354 335 293 284 312 241 268 302 290 235 265 295 22 61 239 283 287 262 219 224 189 268 295 292 291 290 287 288 286 283 281 282
257 258 259 258 260 261 261 258 257 261 265 267 267 270 275 273 270 266 268 276 270 274 290 310 332 353 279 282 289 294 277 262 263 275 256 225 214 192 166 155 148 152 153 155 147 137 131 126 109 119 184 292 78 72 8 335 322 337 206 269 282 251 292 319 307 21 165 306 1 331 239 286 291 284 230 219 294 296 294 287 285 283 284 286 285 286 284 287
257 259 260 260 259 257 257 255 253 256 259 261 263 269 273 271 267 266 269 264 257 269 276 286 328 331 261 266 305 291 277 265 251 295 267 199 197 182 150 126 111 118 116 118 128 126 89 66 59 307 54 23 124 101 27 301 276 303 183 251 264 254 284 304 293 326 54 29 331 286 266 267 277 283 285 284 281 279 276 276 281 283 283 285 284 286 284 284
251 255 258 260 262 260 258 254 250 250 251 254 260 266 270 270 267 263 260 251 254 280 274 265 300 311 261 258 285 273 287 318 243 287 188 168 177 176 152 122 114 112 97 76 106 134 12 26 78 345 354 114 151 130 181 234 228 233 209 228 276 268 243 263 271 296 4 330 292 286 278 270 274 281 288 291 283 273 273 273 277 280 282 284 284 284 282 281
259 254 253 256 259 261 261 255 248 243 243 248 249 255 265 275 272 262 251 225 202 246 248 218 186 209 284 252 259 278 301 284 168 130 156 156 164 160 134 116 117 107 108 113 249 180 118 50 76 180 245 206 190 184 204 221 169 172 211 210 265 280 260 263 267 269 332 304 277 271 273 275 280 283 288 294 296 281 276 277 277 278 280 281 281 278 276 277
315 287 265 256 254 257 259 256 250 237 232 232 225 236 267 279 278 270 246 206 213 225 231 197 191 234 290 273 277 286 251 197 211 165 161 159 151 135 105 85 88 76 142 153 199 180 127 179 184 217 231 204 194 207 219 244 354 340 265 261 258 272 275 273 277 285 350 288 266 260 271 275 278 282 286 291 296 284 278 279 276 273 274 274 274 275 274 272
338 321 307 287 267 260 257 255 248 233 226 221 204 191 240 227 243 298 269 238 231 229 239 232 212 233 254 243 59 33 360 249 258 164 168 165 149 140 151 139 124 171 186 141 140 60 120 201 217 228 226 173 186 210 225 251 281 273 262 275 274 261 268 273 288 307 36 245 256 260 280 283 282 284 285 287 286 280 280 278 270 268 271 272 269 273 278 279
334 329 321 307 294 278 264 257 249 234 218 208 198 193 243 226 226 296 296 276 252 224 230 239 229 242 250 243 235 78 16 284 268 196 171 168 163 172 183 156 166 190 151 123 128 103 233 226 232 233 213 118 172 195 207 228 244 250 248 273 274 261 278 280 283 318 47 252 278 289 289 288 285 283 283 282 273 275 281 268 261 264 265 267 264 271 283 292
318 320 320 315 310 294 275 261 251 230 202 194 192 192 237 238 235 317 325 283 281 225 215 230 225 232 246 249 230 199 242 240 238 226 177 166 178 187 168 168 179 156 145 178 190 187 214 237 237 230 190 161 207 172 184 223 240 235 228 249 261 258 284 279 275 337 333 279 285 297 294 284 278 280 285 282 257 257 272 254 252 253 249 258 267 274 277 282
311 312 311 314 317 309 290 267 251 217 196 199 202 202 220 227 238 346 2 258 277 248 219 217 209 215 233 245 192 185 215 219 209 220 180 167 154 151 170 171 160 159 190 199 203 213 224 241 230 207 186 190 214 199 175 214 245 225 212 224 250 254 242 249 284 338 318 292 305 315 305 284 270 278 288 295 272 270 281 280 276 263 251 263 277 277 260 257
314 305 303 309 310 311 303 286 252 204 194 199 210 217 225 232 259 322 347 292 265 271 259 212 189 211 208 154 158 173 191 224 227 214 175 173 157 134 174 161 152 195 202 197 212 239 245 235 109 140 182 189 205 223 193 199 241 257 209 216 236 250 247 256 292 343 334 306 345 4 334 287 275 280 279 296 302 293 301 305 291 277 274 276 269 266 263 262
322 306 303 301 303 310 308 319 277 202 190 197 215 220 224 233 256 270 316 315 264 253 138 193 161 184 177 137 155 153 115 245 241 187 174 182 172 125 152 156 114 203 182 173 215 254 243 213 181 173 171 164 199 240 210 186 228 304 221 207 224 240 247 263 283 326 295 259 297 48 18 279 285 269 274 286 288 284 292 295 285 278 280 275 257 256 261 268
329 316 310 300 307 317 312 345 324 197 182 222 221 213 219 225 232 237 313 308 271 172 126 236 82 159 168 159 169 152 147 274 339 159 175 183 183 94 149 178 142 192 158 135 248 253 190 196 212 199 163 156 208 243 195 164 179 271 235 189 204 222 231 240 249 239 241 288 290 168 150 276 286 251 263 280 284 282 284 283 283 281 274 267 261 261 252 253
338 325 316 304 308 324 329 324 308 202 201 279 214 203 195 188 193 195 32 289 278 87 115 245 121 139 117 139 166 142 234 268 75 29 178 174 188 72 174 199 171 183 171 157 225 262 150 185 206 189 178 199 216 202 160 157 185 247 203 147 173 191 204 201 190 228 268 343 291 201 138 268 281 265 262 274 280 285 283 281 286 284 278 270 268 271 263 263
342 337 328 315 302 313 334 284 266 253 267 259 187 183 160 160 172 97 53 254 272 72 106 104 118 127 59 105 205 330 335 346 99 291 26 159 184 71 180 201 146 173 202 201 230 285 99 197 194 171 183 213 207 168 158 165 197 231 145 113 88 101 108 132 157 178 356 310 257 202 157 214 274 278 264 259 265 270 276 285 285 279 276 266 262 273 278 288
341 344 342 334 318 320 343 235 279 275 253 189 172 158 139 153 174 117 222 243 27 64 118 118 134 147 112 129 236 285 303 342 30 91 49 134 99 45 132 141 99 137 242 272 260 259 256 237 170 173 199 198 171 158 171 176 182 132 117 86 25 39 46 56 93 79 360 274 255 203 188 190 274 281 225 219 234 232 261 292 297 304 303 281 262 262 270 281
334 339 343 344 340 338 339 12 1 253 193 168 158 141 123 154 287 195 225 249 38 47 95 111 86 113 135 151 193 185 143 357 81 142 131 137 117 61 75 110 81 80 320 281 269 259 258 252 225 221 196 144 123 123 157 192 167 100 95 88 37 332 10 24 355 46 200 255 270 215 184 177 228 262 260 274 275 244 230 259 278 298 300 287 280 269 260 260
328 331 337 334 333 332 307 317 354 224 172 161 148 127 99 231 229 227 235 3 334 239 116 132 14 98 141 354 28 155 135 134 159 159 155 152 176 191 196 187 145 94 260 239 246 281 256 233 224 240 205 150 138 126 26 5 134 126 130 113 86 321 5 6 313 139 229 258 274 104 131 189 235 262 279 278 277 265 241 238 250 260 266 270 273 273 271 269
322 322 322 318 316 315 289 263 322 208 166 162 147 115 122 223 233 227 220 257 259 264 91 114 68 97 125 3 308 173 95 188 174 169 165 157 191 210 216 218 177 136 206 199 213 303 289 263 209 192 240 174 159 178 205 196 170 165 169 154 147 158 99 271 269 277 263 272 280 145 94 279 271 274 255 254 264 270 263 255 251 246 246 249 252 261 282 289
316 313 307 308 305 300 279 251 292 197 170 176 164 135 178 233 243 232 215 231 248 38 57 91 72 77 142 232 246 183 134 230 173 156 156 159 193 218 217 225 206 151 91 145 186 183 216 294 196 170 205 179 181 199 182 131 157 177 163 143 156 163 170 206 217 226 253 281 303 253 191 219 225 261 244 236 258 273 267 267 273 265 251 250 262 266 273 278
302 300 302 304 296 291 273 247 268 219 182 187 169 168 203 231 242 244 230 230 245 54 26 21 81 73 280 267 261 212 188 222 165 151 184 190 203 211 204 215 199 176 148 178 223 173 198 270 223 174 155 170 182 196 137 106 142 193 131 126 204 185 168 202 203 182 188 307 298 235 223 225 216 269 276 264 267 269 265 269 270 265 251 242 258 255 249 258
294 301 307 302 291 291 278 244 244 221 195 190 188 196 219 228 227 233 222 208 203 156 116 330 107 140 253 259 258 238 200 120 158 160 215 215 226 228 212 216 195 189 191 187 202 178 196 279 233 151 106 181 182 177 161 161 172 154 141 181 208 160 150 201 264 88 73 268 264 201 241 282 301 285 283 292 296 281 272 262 244 246 244 233 241 238 241 255
293 309 306 294 295 298 276 236 212 211 208 201 212 213 221 234 232 217 194 150 171 151 151 222 216 184 220 252 238 217 187 123 172 173 206 209 234 228 210 221 196 197 208 210 244 210 192 273 238 170 188 225 197 128 163 206 144 132 185 205 132 94 122 116 251 344 26 247 271 234 231 275 297 282 294 347 340 308 282 271 259 270 274 252 247 237 241 251
277 324 306 290 299 303 234 199 184 197 207 218 235 236 229 238 242 224 229 196 91 99 166 219 222 187 198 228 231 189 176 188 175 172 195 205 240 212 188 211 206 202 214 216 268 289 159 267 265 181 163 257 56 99 112 309 141 133 194 213 119 156 220 117 160 239 239 238 278 273 245 251 240 245 264 286 297 289 284 296 294 274 264 250 249 233 232 243
205 360 309 268 326 338 198 177 170 187 213 217 227 234 230 241 250 241 250 306 54 82 237 236 231 219 207 203 200 153 181 195 175 174 198 209 237 197 169 196 219 210 212 198 211 273 85 238 273 279 163 349 52 176 178 191 237 63 302 256 104 159 184 166 168 179 201 235 277 276 275 261 234 216 196 217 232 243 263 285 272 250 241 238 242 231 227 232
148 48 273 214 14 8 162 156 159 198 219 222 225 236 238 248 264 253 217 235 235 230 242 240 224 239 245 216 204 177 202 211 181 186 216 218 241 236 182 190 190 190 195 185 215 274 8 252 253 17 348 264 189 206 185 175 187 188 194 209 200 180 154 217 235 155 162 199 239 253 265 262 242 185 174 204 221 226 238 256 263 259 250 244 242 237 231 226
144 129 255 256 288 129 140 141 177 211 227 238 235 243 249 279 308 282 254 231 228 247 260 254 245 251 264 263 249 177 193 228 193 192 228 226 230 244 200 178 154 123 121 154 225 230 193 246 240 195 240 225 221 223 196 189 189 182 189 200 198 187 169 235 245 204 162 196 204 205 256 268 257 173 185 206 213 225 219 219 254 272 264 256 247 239 236 231
177 202 220 244 173 149 137 146 223 209 233 237 240 256 272 310 295 273 295 318 221 229 265 264 255 254 250 256 258 217 181 218 202 197 226 224 220 227 203 161 157 149 138 157 225 217 180 224 249 237 237 231 235 241 212 213 215 212 211 196 190 186 185 213 229 211 156 212 202 179 249 268 260 163 177 207 206 230 223 203 244 272 270 268 265 252 239 226
214 209 157 148 164 157 134 235 233 231 244 257 284 291 290 305 287 280 309 303 263 245 250 251 254 257 253 253 258 239 208 215 204 205 229 232 229 234 205 155 151 151 153 202 244 207 163 166 244 251 265 288 289 284 345 346 221 241 245 182 180 203 206 216 223 189 164 192 203 216 236 260 267 199 172 209 214 235 244 222 237 263 276 274 257 249 239 224
206 206 184 171 173 171 162 204 216 231 243 263 279 273 273 286 280 278 280 279 304 334 279 257 247 275 286 302 288 249 235 241 221 219 237 234 240 255 220 174 177 183 187 198 202 198 198 190 213 243 262 289 299 277 285 283 190 211 238 209 208 219 221 238 342 205 232 206 206 229 236 252 270 264 164 196 224 243 254 238 224 242 267 272 255 240 237 235
158 201 241 200 182 185 202 221 212 226 236 248 261 261 268 275 265 264 269 272 280 284 284 283 309 343 321 321 317 285 261 263 249 239 247 236 266 286 276 197 214 213 232 287 346 269 230 207 203 225 236 233 236 237 235 220 193 196 233 220 220 218 216 224 235 231 238 224 218 234 245 255 268 272 264 238 234 255 259 247 231 236 253 269 272 258 244 241
203 222 212 213 205 202 217 237 213 216 229 238 256 257 253 260 271 278 277 272 265 259 273 284 302 317 292 275 281 276 266 265 258 259 265 251 260 282 352 358 325 269 286 308 354 44 257 249 228 232 236 231 235 244 231 125 148 199 211 214 217 213 210 214 226 232 234 236 235 235 243 252 259 267 269 263 249 246 246 247 249 251 257 259 258 260 255 233
225 229 195 181 236 211 201 221 207 204 224 222 230 244 244 249 260 267 260 257 266 271 269 265 268 271 264 268 276 270 270 270 263 271 276 270 274 292 318 327 301 267 278 286 342 100 241 263 255 254 256 253 254 262 264 195 187 208 207 213 217 213 207 207 220 230 230 240 243 231 236 248 251 260 270 273 263 249 239 242 252 259 268 264 227 236 245 193
216 236 217 197 206 202 190 203 204 203 217 218 213 240 252 254 246 241 250 266 305 308 290 260 256 260 276 300 293 279 284 284 277 279 285 292 313 317 321 317 297 305 316 295 286 240 239 241 252 262 268 269 270 274 275 270 257 242 224 220 219 215 212 212 221 227 226 233 241 230 234 246 248 251 261 266 266 261 247 233 237 246 257 251 188 210 222 208
207 247 264 232 220 210 190 191 194 197 212 218 220 232 245 254 253 251 267 335 312 286 262 270 271 302 352 360 342 295 296 299 295 299 314 321 328 329 320 303 300 12 26 342 319 292 255 256 260 262 267 269 267 266 268 269 269 267 258 242 228 222 222 221 224 227 229 235 242 240 241 244 243 245 250 255 263 271 250 212 227 231 233 224 213 222 221 211
204 203 226 76 323 236 182 181 182 186 207 215 219 229 234 242 248 254 261 266 272 271 266 277 289 50 26 360 6 299 287 305 306 307 319 320 320 323 304 284 301 347 354 333 320 292 281 299 300 287 278 272 270 265 261 259 260 262 263 260 256 247 238 232 231 231 235 241 244 245 247 248 244 246 250 254 265 286 278 219 228 230 227 221 221 228 226 217
229 219 174 144 217 211 181 172 173 174 199 208 211 221 228 235 238 244 253 245 239 243 259 277 312 41 350 311 317 285 278 297 287 285 303 304 303 313 305 298 316 326 320 303 291 292 294 310 325 311 291 283 288 286 280 279 274 265 260 257 256 253 247 242 237 233 236 243 245 244 245 246 244 248 254 260 267 275 269 253 236 230 232 226 225 230 230 222
228 239 130 146 221 214 191 188 189 184 193 201 200 205 217 228 223 219 239 240 213 227 226 184 159 326 301 291 289 277 228 208 250 266 282 275 273 277 272 276 284 284 287 290 288 284 278 284 300 293 282 286 292 292 297 301 289 273 261 253 251 252 251 246 243 239 235 238 243 244 244 246 247 251 257 262 263 263 264 261 249 237 238 235 232 233 233 223